| time (UTC) | temp F | wind direction | speed MPH | gust MPH | rain 1hr in | rain 24hr in | rain mn in | humidity % | barometer mb |
| 20260906073519 | 82 | 316 | 3.0 | 7.0 | 0.00 | 0.00 | 0.00 | 49 | 1017.1 |
| 20260906073041 | 82 | 319 | 3.0 | 7.0 | 0.00 | 0.00 | 0.00 | 48 | 1017.1 |
| 20260906072518 | 82 | 330 | 4.0 | 7.0 | 0.00 | 0.00 | 0.00 | 47 | 1017.0 |
| 20260906072019 | 82 | 307 | 3.0 | 6.0 | 0.00 | 0.00 | 0.00 | 49 | 1017.0 |
| 20260906071020 | 82 | 347 | 1.0 | 5.0 | 0.00 | 0.00 | 0.00 | 52 | 1016.8 |
| 20260906070522 | 81 | 348 | 3.0 | 5.0 | 0.00 | 0.00 | 0.00 | 53 | 1016.8 |
| 20260906070035 | 81 | 338 | 3.0 | 5.0 | 0.00 | 0.00 | 0.00 | 53 | 1016.8 |
| 20260906065519 | 81 | 321 | 2.0 | 6.0 | 0.00 | 0.00 | 0.00 | 54 | 1016.8 |
| 20260906065020 | 80 | 323 | 3.0 | 6.0 | 0.00 | 0.00 | 0.00 | 52 | 1016.7 |
| 20260906064531 | 81 | 310 | 2.0 | 4.0 | 0.00 | 0.00 | 0.00 | 56 | 1016.7 |
| 20260906064018 | 80 | 337 | 2.0 | 4.0 | 0.00 | 0.00 | 0.00 | 55 | 1016.6 |
| 20260906063517 | 81 | 332 | 2.0 | 5.0 | 0.00 | 0.00 | 0.00 | 53 | 1016.6 |
| 20260906063036 | 81 | 319 | 3.0 | 5.0 | 0.00 | 0.00 | 0.00 | 52 | 1016.6 |
| 20260906062519 | 81 | 348 | 2.0 | 5.0 | 0.00 | 0.00 | 0.00 | 52 | 1016.6 |
| 20260906062018 | 81 | 330 | 1.0 | 3.0 | 0.00 | 0.00 | 0.00 | 51 | 1016.5 |
| 20260906061534 | 81 | 314 | 1.0 | 3.0 | 0.00 | 0.00 | 0.00 | 52 | 1016.4 |
| 20260906061017 | 82 | 353 | 0.0 | 2.0 | 0.00 | 0.00 | 0.00 | 51 | 1016.4 |
| 20260906060518 | 81 | 0 | 0.0 | 2.0 | 0.00 | 0.00 | 0.00 | 53 | 1016.4 |
| 20260906060049 | 80 | 323 | 0.0 | 2.0 | 0.00 | 0.00 | 0.00 | 52 | 1016.4 |
| 20260906055519 | 80 | 323 | 0.0 | 2.0 | 0.00 | 0.00 | 0.00 | 53 | 1016.4 |
| 20260906055022 | 80 | 305 | 0.0 | 3.0 | 0.00 | 0.00 | 0.00 | 52 | 1016.4 |
| 20260906054019 | 80 | 348 | 1.0 | 3.0 | 0.00 | 0.00 | 0.00 | 55 | 1016.4 |
| 20260906053521 | 80 | 323 | 1.0 | 3.0 | 0.00 | 0.00 | 0.00 | 53 | 1016.4 |
| 20260906053037 | 81 | 160 | 0.0 | 1.0 | 0.00 | 0.00 | 0.00 | 49 | 1016.3 |
| 20260906052522 | 80 | 0 | 0.0 | 2.0 | 0.00 | 0.00 | 0.00 | 51 | 1016.2 |
| 20260906052019 | 79 | 167 | 1.0 | 2.0 | 0.00 | 0.00 | 0.00 | 52 | 1016.3 |
| 20260906051535 | 78 | 172 | 0.0 | 2.0 | 0.00 | 0.00 | 0.00 | 53 | 1016.2 |
| 20260906051018 | 77 | 185 | 0.0 | 2.0 | 0.00 | 0.00 | 0.00 | 54 | 1016.1 |
| 20260906050517 | 77 | 0 | 0.0 | 2.0 | 0.00 | 0.00 | 0.00 | 54 | 1016.2 |
| 20260906050038 | 76 | 0 | 0.0 | 1.0 | 0.00 | 0.00 | 0.00 | 55 | 1016.3 |
| 20260906045524 | 75 | 205 | 0.0 | 0.0 | 0.00 | 0.00 | 0.00 | 56 | 1016.3 |
| 20260906045022 | 73 | 0 | 0.0 | 1.0 | 0.00 | 0.00 | 0.00 | 57 | 1016.3 |
| 20260906044532 | 73 | 0 | 0.0 | 1.0 | 0.00 | 0.00 | 0.00 | 57 | 1016.1 |
| 20260906044021 | 72 | 0 | 0.0 | 1.0 | 0.00 | 0.00 | 0.00 | 58 | 1016.1 |
| 20260906043519 | 72 | 238 | 0.0 | 1.0 | 0.00 | 0.00 | 0.00 | 59 | 1016.1 |
| 20260906043039 | 71 | 238 | 0.0 | 2.0 | 0.00 | 0.00 | 0.00 | 60 | 1016.1 |
| 20260906042515 | 70 | 0 | 0.0 | 3.0 | 0.00 | 0.00 | 0.00 | 61 | 1016.1 |
| 20260906042019 | 69 | 238 | 1.0 | 3.0 | 0.00 | 0.00 | 0.00 | 60 | 1016.0 |
| 20260906041536 | 69 | 229 | 1.0 | 3.0 | 0.00 | 0.00 | 0.00 | 60 | 1015.9 |
| 20260906041019 | 69 | 252 | 1.0 | 2.0 | 0.00 | 0.00 | 0.00 | 60 | 1015.8 |
| 20260906040518 | 69 | 229 | 1.0 | 2.0 | 0.00 | 0.00 | 0.00 | 61 | 1015.8 |
| 20260906040038 | 69 | 243 | 1.0 | 3.0 | 0.00 | 0.00 | 0.00 | 61 | 1015.8 |
| 20260906035519 | 69 | 169 | 1.0 | 3.0 | 0.00 | 0.00 | 0.00 | 61 | 1015.8 |
| 20260906035017 | 69 | 200 | 1.0 | 2.0 | 0.00 | 0.00 | 0.00 | 61 | 1015.8 |
| 20260906034536 | 70 | 215 | 0.0 | 2.0 | 0.00 | 0.00 | 0.00 | 60 | 1015.7 |
| 20260906034015 | 70 | 229 | 0.0 | 2.0 | 0.00 | 0.00 | 0.00 | 60 | 1015.7 |
| 20260906033515 | 70 | 229 | 0.0 | 2.0 | 0.00 | 0.00 | 0.00 | 60 | 1015.6 |
| 20260906033036 | 70 | 0 | 0.0 | 1.0 | 0.00 | 0.00 | 0.00 | 60 | 1015.6 |
| 20260906032517 | 70 | 224 | 0.0 | 1.0 | 0.00 | 0.00 | 0.00 | 61 | 1015.5 |
| 20260906032021 | 70 | 0 | 0.0 | 1.0 | 0.00 | 0.00 | 0.00 | 62 | 1015.6 |
| 20260906031604 | 70 | 0 | 0.0 | 2.0 | 0.00 | 0.00 | 0.00 | 61 | 1015.6 |
| 20260906031017 | 70 | 0 | 0.0 | 3.0 | 0.00 | 0.00 | 0.00 | 59 | 1015.6 |
| 20260906030517 | 70 | 0 | 1.0 | 3.0 | 0.00 | 0.00 | 0.00 | 60 | 1015.6 |
| 20260906030037 | 70 | 219 | 1.0 | 3.0 | 0.00 | 0.00 | 0.00 | 60 | 1015.3 |
| 20260906025521 | 70 | 215 | 1.0 | 3.0 | 0.00 | 0.00 | 0.00 | 61 | 1015.4 |
| 20260906025018 | 69 | 217 | 0.0 | 2.0 | 0.00 | 0.00 | 0.00 | 61 | 1015.5 |
| 20260906024541 | 69 | 214 | 1.0 | 2.0 | 0.00 | 0.00 | 0.00 | 61 | 1015.5 |
| 20260906024019 | 69 | 217 | 0.0 | 2.0 | 0.00 | 0.00 | 0.00 | 61 | 1015.5 |
| 20260906023519 | 69 | 232 | 1.0 | 2.0 | 0.00 | 0.00 | 0.00 | 61 | 1015.4 |
| 20260906023045 | 70 | 209 | 0.0 | 3.0 | 0.00 | 0.00 | 0.00 | 60 | 1015.4 |
| 20260906022518 | 70 | 229 | 1.0 | 3.0 | 0.00 | 0.00 | 0.00 | 60 | 1015.4 |
| 20260906022015 | 70 | 218 | 1.0 | 3.0 | 0.00 | 0.00 | 0.00 | 59 | 1015.4 |
| 20260906021533 | 70 | 202 | 0.0 | 1.0 | 0.00 | 0.00 | 0.00 | 59 | 1015.4 |
| 20260906021024 | 70 | 220 | 0.0 | 2.0 | 0.00 | 0.00 | 0.00 | 58 | 1015.5 |
| 20260906020517 | 71 | 0 | 0.0 | 2.0 | 0.00 | 0.00 | 0.00 | 57 | 1015.5 |
| 20260906015518 | 70 | 0 | 0.0 | 2.0 | 0.00 | 0.00 | 0.00 | 57 | 1015.6 |
| 20260906015019 | 70 | 200 | 1.0 | 2.0 | 0.00 | 0.00 | 0.00 | 57 | 1015.5 |
| 20260906014536 | 71 | 229 | 1.0 | 2.0 | 0.00 | 0.00 | 0.00 | 57 | 1015.5 |
| 20260906014024 | 71 | 224 | 0.0 | 2.0 | 0.00 | 0.00 | 0.00 | 57 | 1015.6 |
| 20260906013520 | 71 | 169 | 1.0 | 3.0 | 0.00 | 0.00 | 0.00 | 57 | 1015.5 |
| 20260906012517 | 70 | 241 | 1.0 | 3.0 | 0.00 | 0.00 | 0.00 | 58 | 1015.6 |
| 20260906012022 | 70 | 217 | 0.0 | 2.0 | 0.00 | 0.00 | 0.00 | 58 | 1015.6 |
| 20260906011535 | 71 | 0 | 0.0 | 2.0 | 0.00 | 0.00 | 0.00 | 58 | 1015.7 |
| 20260906011017 | 71 | 205 | 1.0 | 2.0 | 0.00 | 0.00 | 0.00 | 58 | 1015.6 |
| 20260906010519 | 71 | 200 | 1.0 | 2.0 | 0.00 | 0.00 | 0.00 | 58 | 1015.7 |
| 20260906010034 | 71 | 217 | 1.0 | 2.0 | 0.00 | 0.00 | 0.00 | 59 | 1015.7 |
| 20260906005521 | 71 | 238 | 1.0 | 2.0 | 0.00 | 0.00 | 0.00 | 59 | 1015.7 |
| 20260906005021 | 71 | 0 | 0.0 | 2.0 | 0.00 | 0.00 | 0.00 | 58 | 1015.6 |
| 20260906004024 | 71 | 218 | 1.0 | 3.0 | 0.00 | 0.00 | 0.00 | 58 | 1015.6 |
| 20260906003518 | 71 | 241 | 1.0 | 3.0 | 0.00 | 0.00 | 0.00 | 58 | 1015.6 |
| 20260906002517 | 71 | 159 | 1.0 | 2.0 | 0.00 | 0.00 | 0.00 | 58 | 1015.6 |
| 20260906002016 | 71 | 0 | 0.0 | 2.0 | 0.00 | 0.00 | 0.00 | 58 | 1015.8 |
| 20260906001543 | 71 | 196 | 0.0 | 2.0 | 0.00 | 0.00 | 0.00 | 58 | 1015.7 |
| 20260906001023 | 71 | 231 | 0.0 | 2.0 | 0.00 | 0.00 | 0.00 | 58 | 1015.7 |
| 20260906000519 | 71 | 203 | 0.0 | 2.0 | 0.00 | 0.00 | 0.00 | 57 | 1015.7 |
| 20260905235517 | 72 | 219 | 1.0 | 2.0 | 0.00 | 0.00 | 0.00 | 56 | 1015.8 |
| 20260905235024 | 72 | 172 | 1.0 | 2.0 | 0.00 | 0.00 | 0.00 | 56 | 1015.8 |
| 20260905234018 | 72 | 161 | 0.0 | 2.0 | 0.00 | 0.00 | 0.00 | 56 | 1015.9 |
| 20260905233518 | 72 | 212 | 0.0 | 2.0 | 0.00 | 0.00 | 0.00 | 57 | 1015.9 |
| 20260905233040 | 72 | 229 | 1.0 | 3.0 | 0.00 | 0.00 | 0.00 | 56 | 1016.0 |
| 20260905232517 | 72 | 177 | 1.0 | 3.0 | 0.00 | 0.00 | 0.00 | 56 | 1016.0 |
| 20260905232016 | 72 | 210 | 1.0 | 2.0 | 0.00 | 0.00 | 0.00 | 56 | 1016.0 |
| 20260905231537 | 72 | 212 | 1.0 | 2.0 | 0.00 | 0.00 | 0.00 | 56 | 1016.1 |
| 20260905231021 | 72 | 210 | 0.0 | 3.0 | 0.00 | 0.00 | 0.00 | 56 | 1016.0 |
| 20260905230521 | 72 | 193 | 1.0 | 3.0 | 0.00 | 0.00 | 0.00 | 56 | 1016.0 |
| 20260905225519 | 72 | 205 | 0.0 | 3.0 | 0.00 | 0.00 | 0.00 | 57 | 1016.1 |
| 20260905225016 | 72 | 0 | 0.0 | 3.0 | 0.00 | 0.00 | 0.00 | 57 | 1016.1 |
| 20260905224535 | 73 | 238 | 0.0 | 3.0 | 0.00 | 0.00 | 0.00 | 56 | 1016.1 |
| 20260905224032 | 72 | 231 | 0.0 | 2.0 | 0.00 | 0.00 | 0.00 | 57 | 1016.0 |
| 20260905223520 | 73 | 231 | 0.0 | 2.0 | 0.00 | 0.00 | 0.00 | 56 | 1016.0 |
| 20260905223032 | 73 | 230 | 0.0 | 2.0 | 0.00 | 0.00 | 0.00 | 55 | 1016.0 |
| 20260905222518 | 73 | 226 | 1.0 | 3.0 | 0.00 | 0.00 | 0.00 | 55 | 1016.0 |
| 20260905222018 | 73 | 0 | 0.0 | 3.0 | 0.00 | 0.00 | 0.00 | 55 | 1016.0 |
| 20260905221544 | 73 | 213 | 1.0 | 3.0 | 0.00 | 0.00 | 0.00 | 56 | 1015.9 |
| 20260905221018 | 73 | 202 | 1.0 | 3.0 | 0.00 | 0.00 | 0.00 | 55 | 1016.0 |
| 20260905220518 | 73 | 213 | 1.0 | 3.0 | 0.00 | 0.00 | 0.00 | 56 | 1016.1 |
| 20260905220034 | 73 | 203 | 1.0 | 2.0 | 0.00 | 0.00 | 0.00 | 56 | 1016.1 |
| 20260905215520 | 74 | 210 | 1.0 | 2.0 | 0.00 | 0.00 | 0.00 | 56 | 1016.1 |
| 20260905215019 | 73 | 0 | 0.0 | 1.0 | 0.00 | 0.00 | 0.00 | 57 | 1016.2 |
| 20260905214019 | 73 | 210 | 1.0 | 2.0 | 0.00 | 0.00 | 0.00 | 55 | 1016.1 |
| 20260905213517 | 73 | 217 | 1.0 | 2.0 | 0.00 | 0.00 | 0.00 | 55 | 1016.2 |
| 20260905213034 | 73 | 240 | 1.0 | 2.0 | 0.00 | 0.00 | 0.00 | 55 | 1016.1 |
| 20260905212516 | 74 | 234 | 1.0 | 2.0 | 0.00 | 0.00 | 0.00 | 54 | 1016.2 |
| 20260905212017 | 74 | 0 | 0.0 | 2.0 | 0.00 | 0.00 | 0.00 | 54 | 1016.2 |
| 20260905211535 | 74 | 216 | 1.0 | 2.0 | 0.00 | 0.00 | 0.00 | 53 | 1016.2 |
| 20260905211020 | 74 | 0 | 0.0 | 2.0 | 0.00 | 0.00 | 0.00 | 53 | 1016.2 |
| 20260905210520 | 74 | 210 | 1.0 | 3.0 | 0.00 | 0.00 | 0.00 | 54 | 1016.2 |
| 20260905210035 | 74 | 231 | 0.0 | 3.0 | 0.00 | 0.00 | 0.00 | 54 | 1016.2 |
| 20260905205519 | 74 | 233 | 1.0 | 3.0 | 0.00 | 0.00 | 0.00 | 53 | 1016.2 |
| 20260905205020 | 74 | 200 | 0.0 | 2.0 | 0.00 | 0.00 | 0.00 | 55 | 1016.3 |
| 20260905204536 | 74 | 204 | 0.0 | 2.0 | 0.00 | 0.00 | 0.00 | 56 | 1016.4 |
| 20260905204016 | 74 | 193 | 0.0 | 2.0 | 0.00 | 0.00 | 0.00 | 56 | 1016.3 |
| 20260905203518 | 75 | 240 | 0.0 | 2.0 | 0.00 | 0.00 | 0.00 | 56 | 1016.2 |
| 20260905203034 | 75 | 219 | 0.0 | 2.0 | 0.00 | 0.00 | 0.00 | 54 | 1016.3 |
| 20260905202524 | 75 | 204 | 0.0 | 2.0 | 0.00 | 0.00 | 0.00 | 53 | 1016.3 |
| 20260905202019 | 75 | 213 | 0.0 | 2.0 | 0.00 | 0.00 | 0.00 | 52 | 1016.3 |
| 20260905201534 | 76 | 217 | 1.0 | 2.0 | 0.00 | 0.00 | 0.00 | 52 | 1016.3 |
| 20260905201019 | 76 | 214 | 1.0 | 2.0 | 0.00 | 0.00 | 0.00 | 51 | 1016.4 |
| 20260905200526 | 76 | 201 | 0.0 | 3.0 | 0.00 | 0.00 | 0.00 | 51 | 1016.5 |
| 20260905195519 | 76 | 209 | 0.0 | 3.0 | 0.00 | 0.00 | 0.00 | 51 | 1016.5 |
| 20260905195019 | 76 | 151 | 1.0 | 2.0 | 0.00 | 0.00 | 0.00 | 51 | 1016.6 |
| 20260905194020 | 76 | 216 | 0.0 | 1.0 | 0.00 | 0.00 | 0.00 | 52 | 1016.6 |
| 20260905193517 | 76 | 233 | 0.0 | 1.0 | 0.00 | 0.00 | 0.00 | 52 | 1016.6 |
| 20260905193041 | 76 | 233 | 0.0 | 2.0 | 0.00 | 0.00 | 0.00 | 52 | 1016.6 |
| 20260905192520 | 76 | 210 | 0.0 | 4.0 | 0.00 | 0.00 | 0.00 | 52 | 1016.6 |
| 20260905192018 | 77 | 0 | 0.0 | 4.0 | 0.00 | 0.00 | 0.00 | 51 | 1016.5 |
| 20260905191535 | 77 | 228 | 1.0 | 4.0 | 0.00 | 0.00 | 0.00 | 50 | 1016.5 |
| 20260905191021 | 77 | 233 | 1.0 | 4.0 | 0.00 | 0.00 | 0.00 | 49 | 1016.5 |
| 20260905190524 | 77 | 244 | 1.0 | 3.0 | 0.00 | 0.00 | 0.00 | 49 | 1016.5 |
| 20260905190045 | 77 | 218 | 1.0 | 3.0 | 0.00 | 0.00 | 0.00 | 48 | 1016.5 |
| 20260905185517 | 77 | 169 | 1.0 | 3.0 | 0.00 | 0.00 | 0.00 | 48 | 1016.5 |
| 20260905185018 | 77 | 210 | 1.0 | 3.0 | 0.00 | 0.00 | 0.00 | 48 | 1016.5 |
| 20260905184018 | 78 | 0 | 0.0 | 2.0 | 0.00 | 0.00 | 0.00 | 47 | 1016.4 |
| 20260905183518 | 78 | 186 | 0.0 | 2.0 | 0.00 | 0.00 | 0.00 | 47 | 1016.3 |
| 20260905183034 | 78 | 239 | 1.0 | 2.0 | 0.00 | 0.00 | 0.00 | 47 | 1016.3 |
| 20260905182518 | 78 | 213 | 0.0 | 2.0 | 0.00 | 0.00 | 0.00 | 46 | 1016.2 |
| 20260905182020 | 78 | 214 | 0.0 | 1.0 | 0.00 | 0.00 | 0.00 | 46 | 1016.1 |
| 20260905181019 | 78 | 211 | 0.0 | 2.0 | 0.00 | 0.00 | 0.00 | 45 | 1016.0 |
| 20260905180520 | 78 | 222 | 0.0 | 2.0 | 0.00 | 0.00 | 0.00 | 45 | 1016.0 |
| 20260905180053 | 79 | 195 | 1.0 | 2.0 | 0.00 | 0.00 | 0.00 | 44 | 1015.9 |
| 20260905175518 | 79 | 217 | 0.0 | 2.0 | 0.00 | 0.00 | 0.00 | 44 | 1015.9 |
| 20260905175020 | 79 | 0 | 0.0 | 2.0 | 0.00 | 0.00 | 0.00 | 44 | 1015.8 |
| 20260905174533 | 79 | 224 | 0.0 | 2.0 | 0.00 | 0.00 | 0.00 | 43 | 1015.8 |
| 20260905174019 | 80 | 0 | 0.0 | 2.0 | 0.00 | 0.00 | 0.00 | 43 | 1015.8 |
| 20260905173520 | 80 | 251 | 0.0 | 3.0 | 0.00 | 0.00 | 0.00 | 42 | 1015.7 |
| 20260905172518 | 80 | 239 | 2.0 | 3.0 | 0.00 | 0.00 | 0.00 | 42 | 1015.6 |
| 20260905172021 | 80 | 200 | 1.0 | 2.0 | 0.00 | 0.00 | 0.00 | 42 | 1015.5 |
| 20260905171549 | 80 | 229 | 0.0 | 1.0 | 0.00 | 0.00 | 0.00 | 42 | 1015.4 |
| 20260905171016 | 81 | 196 | 0.0 | 1.0 | 0.00 | 0.00 | 0.00 | 42 | 1015.4 |
| 20260905170516 | 81 | 0 | 0.0 | 1.0 | 0.00 | 0.00 | 0.00 | 41 | 1015.4 |
| 20260905170035 | 82 | 232 | 0.0 | 1.0 | 0.00 | 0.00 | 0.00 | 41 | 1015.3 |
| 20260905165518 | 82 | 224 | 0.0 | 1.0 | 0.00 | 0.00 | 0.00 | 41 | 1015.3 |
| 20260905165018 | 82 | 205 | 0.0 | 1.0 | 0.00 | 0.00 | 0.00 | 40 | 1015.3 |
| 20260905164021 | 84 | 205 | 0.0 | 2.0 | 0.00 | 0.00 | 0.00 | 40 | 1015.2 |
| 20260905163521 | 85 | 207 | 1.0 | 2.0 | 0.00 | 0.00 | 0.00 | 40 | 1015.1 |
| 20260905163036 | 85 | 240 | 0.0 | 1.0 | 0.00 | 0.00 | 0.00 | 38 | 1015.1 |
| 20260905162018 | 88 | 290 | 0.0 | 1.0 | 0.00 | 0.00 | 0.00 | 36 | 1015.1 |
| 20260905161535 | 88 | 0 | 0.0 | 0.0 | 0.00 | 0.00 | 0.00 | 35 | 1015.1 |
| 20260905161018 | 89 | 0 | 0.0 | 1.0 | 0.00 | 0.00 | 0.00 | 33 | 1015.2 |
| 20260905160521 | 89 | 0 | 0.0 | 1.0 | 0.00 | 0.00 | 0.00 | 33 | 1015.3 |
| 20260905160049 | 89 | 304 | 1.0 | 1.0 | 0.00 | 0.00 | 0.00 | 34 | 1015.3 |
| 20260905155524 | 89 | 304 | 0.0 | 2.0 | 0.00 | 0.00 | 0.00 | 39 | 1015.3 |
| 20260905155019 | 89 | 0 | 0.0 | 2.0 | 0.00 | 0.00 | 0.00 | 40 | 1015.2 |
| 20260905154021 | 88 | 311 | 0.0 | 3.0 | 0.00 | 0.00 | 0.00 | 37 | 1015.3 |
| 20260905153519 | 88 | 319 | 2.0 | 3.0 | 0.00 | 0.00 | 0.00 | 42 | 1015.2 |
| 20260905153036 | 88 | 316 | 2.0 | 3.0 | 0.00 | 0.00 | 0.00 | 44 | 1015.2 |
| 20260905152518 | 89 | 326 | 2.0 | 3.0 | 0.00 | 0.00 | 0.00 | 40 | 1015.2 |
| 20260905152021 | 90 | 330 | 2.0 | 3.0 | 0.00 | 0.00 | 0.00 | 41 | 1015.2 |
| 20260905151536 | 92 | 317 | 1.0 | 3.0 | 0.00 | 0.00 | 0.00 | 40 | 1015.0 |
| 20260905151020 | 92 | 77 | 0.0 | 3.0 | 0.00 | 0.00 | 0.00 | 30 | 1015.1 |
| 20260905150521 | 92 | 0 | 0.0 | 3.0 | 0.00 | 0.00 | 0.00 | 32 | 1015.1 |
| 20260905145520 | 92 | 110 | 0.0 | 5.0 | 0.00 | 0.00 | 0.00 | 32 | 1015.2 |
| 20260905145018 | 91 | 109 | 0.0 | 5.0 | 0.00 | 0.00 | 0.00 | 33 | 1015.1 |
| 20260905144538 | 91 | 142 | 1.0 | 5.0 | 0.00 | 0.00 | 0.00 | 33 | 1015.0 |
| 20260905144019 | 91 | 119 | 2.0 | 5.0 | 0.00 | 0.00 | 0.00 | 33 | 1015.0 |
| 20260905143519 | 91 | 87 | 1.0 | 6.0 | 0.00 | 0.00 | 0.00 | 33 | 1015.0 |
| 20260905142524 | 91 | 141 | 4.0 | 9.0 | 0.00 | 0.00 | 0.00 | 33 | 1015.0 |
| 20260905142021 | 91 | 75 | 3.0 | 9.0 | 0.00 | 0.00 | 0.00 | 33 | 1015.0 |
| 20260905141538 | 91 | 86 | 3.0 | 9.0 | 0.00 | 0.00 | 0.00 | 33 | 1015.0 |
| 20260905141020 | 91 | 55 | 3.0 | 9.0 | 0.00 | 0.00 | 0.00 | 32 | 1015.0 |
| 20260905140519 | 91 | 60 | 3.0 | 10.0 | 0.00 | 0.00 | 0.00 | 33 | 1014.9 |
| 20260905140038 | 91 | 63 | 4.0 | 10.0 | 0.00 | 0.00 | 0.00 | 33 | 1015.0 |
| 20260905135520 | 91 | 123 | 6.0 | 10.0 | 0.00 | 0.00 | 0.00 | 33 | 1015.1 |
| 20260905135021 | 91 | 98 | 2.0 | 14.0 | 0.00 | 0.00 | 0.00 | 33 | 1015.1 |
| 20260905134533 | 91 | 97 | 6.0 | 14.0 | 0.00 | 0.00 | 0.00 | 33 | 1015.1 |
| 20260905134019 | 91 | 115 | 3.0 | 9.0 | 0.00 | 0.00 | 0.00 | 34 | 1015.0 |
| 20260905133520 | 91 | 98 | 3.0 | 9.0 | 0.00 | 0.00 | 0.00 | 35 | 1015.2 |
| 20260905132518 | 91 | 128 | 4.0 | 12.0 | 0.00 | 0.00 | 0.00 | 35 | 1015.2 |
| 20260905132017 | 91 | 100 | 5.0 | 10.0 | 0.00 | 0.00 | 0.00 | 34 | 1015.3 |
| 20260905131538 | 91 | 91 | 4.0 | 9.0 | 0.00 | 0.00 | 0.00 | 33 | 1015.2 |
| 20260905131018 | 91 | 108 | 4.0 | 9.0 | 0.00 | 0.00 | 0.00 | 33 | 1015.3 |
| 20260905130518 | 91 | 115 | 4.0 | 9.0 | 0.00 | 0.00 | 0.00 | 33 | 1015.4 |
| 20260905130033 | 91 | 89 | 3.0 | 9.0 | 0.00 | 0.00 | 0.00 | 32 | 1015.5 |
| 20260905125519 | 92 | 89 | 3.0 | 9.0 | 0.00 | 0.00 | 0.00 | 31 | 1015.5 |
| 20260905125020 | 91 | 163 | 3.0 | 9.0 | 0.00 | 0.00 | 0.00 | 31 | 1015.5 |
| 20260905124019 | 91 | 108 | 3.0 | 9.0 | 0.00 | 0.00 | 0.00 | 34 | 1015.6 |
| 20260905123518 | 91 | 122 | 4.0 | 9.0 | 0.00 | 0.00 | 0.00 | 35 | 1015.6 |
| 20260905122521 | 91 | 100 | 4.0 | 10.0 | 0.00 | 0.00 | 0.00 | 36 | 1015.7 |
| 20260905122020 | 91 | 81 | 4.0 | 11.0 | 0.00 | 0.00 | 0.00 | 35 | 1015.8 |
| 20260905121540 | 91 | 89 | 4.0 | 11.0 | 0.00 | 0.00 | 0.00 | 36 | 1015.9 |
| 20260905121018 | 91 | 49 | 4.0 | 11.0 | 0.00 | 0.00 | 0.00 | 36 | 1016.0 |
| 20260905120518 | 91 | 84 | 4.0 | 9.0 | 0.00 | 0.00 | 0.00 | 36 | 1016.0 |
| 20260905120051 | 91 | 42 | 3.0 | 9.0 | 0.00 | 0.00 | 0.00 | 37 | 1016.1 |
| 20260905115519 | 90 | 57 | 3.0 | 9.0 | 0.00 | 0.00 | 0.00 | 38 | 1016.2 |
| 20260905115019 | 89 | 41 | 4.0 | 12.0 | 0.00 | 0.00 | 0.00 | 39 | 1016.2 |
| 20260905114018 | 90 | 81 | 4.0 | 10.0 | 0.00 | 0.00 | 0.00 | 36 | 1016.3 |
| 20260905113523 | 90 | 101 | 3.0 | 10.0 | 0.00 | 0.00 | 0.00 | 35 | 1016.3 |
| 20260905113037 | 90 | 127 | 4.0 | 10.0 | 0.00 | 0.00 | 0.00 | 33 | 1016.4 |
| 20260905112519 | 90 | 114 | 4.0 | 10.0 | 0.00 | 0.00 | 0.00 | 32 | 1016.4 |
| 20260905112018 | 91 | 132 | 4.0 | 9.0 | 0.00 | 0.00 | 0.00 | 32 | 1016.4 |
| 20260905111605 | 90 | 53 | 3.0 | 11.0 | 0.00 | 0.00 | 0.00 | 32 | 1016.4 |
| 20260905111017 | 90 | 165 | 6.0 | 12.0 | 0.00 | 0.00 | 0.00 | 32 | 1016.4 |
| 20260905110521 | 90 | 71 | 6.0 | 12.0 | 0.00 | 0.00 | 0.00 | 32 | 1016.5 |
| 20260905110033 | 90 | 105 | 3.0 | 10.0 | 0.00 | 0.00 | 0.00 | 33 | 1016.5 |
| 20260905105521 | 90 | 82 | 5.0 | 11.0 | 0.00 | 0.00 | 0.00 | 31 | 1016.5 |
| 20260905105019 | 91 | 45 | 3.0 | 11.0 | 0.00 | 0.00 | 0.00 | 31 | 1016.5 |
| 20260905104019 | 90 | 99 | 5.0 | 11.0 | 0.00 | 0.00 | 0.00 | 32 | 1016.6 |
| 20260905103521 | 90 | 113 | 4.0 | 11.0 | 0.00 | 0.00 | 0.00 | 32 | 1016.6 |
| 20260905103039 | 90 | 93 | 5.0 | 11.0 | 0.00 | 0.00 | 0.00 | 32 | 1016.5 |
| 20260905102518 | 90 | 117 | 4.0 | 11.0 | 0.00 | 0.00 | 0.00 | 33 | 1016.6 |
| 20260905102018 | 90 | 84 | 5.0 | 11.0 | 0.00 | 0.00 | 0.00 | 32 | 1016.5 |
| 20260905101534 | 90 | 162 | 2.0 | 10.0 | 0.00 | 0.00 | 0.00 | 32 | 1016.6 |
| 20260905101023 | 90 | 102 | 5.0 | 10.0 | 0.00 | 0.00 | 0.00 | 35 | 1016.7 |
| 20260905100519 | 89 | 86 | 3.0 | 9.0 | 0.00 | 0.00 | 0.00 | 35 | 1016.7 |
| 20260905100034 | 89 | 137 | 4.0 | 9.0 | 0.00 | 0.00 | 0.00 | 35 | 1016.8 |
| 20260905095520 | 89 | 85 | 6.0 | 9.0 | 0.00 | 0.00 | 0.00 | 35 | 1016.8 |
| 20260905095024 | 89 | 72 | 4.0 | 8.0 | 0.00 | 0.00 | 0.00 | 35 | 1016.8 |
| 20260905094019 | 89 | 156 | 3.0 | 10.0 | 0.00 | 0.00 | 0.00 | 37 | 1017.0 |
| 20260905093516 | 88 | 96 | 4.0 | 8.0 | 0.00 | 0.00 | 0.00 | 37 | 1017.0 |
| 20260905093040 | 88 | 78 | 3.0 | 10.0 | 0.00 | 0.00 | 0.00 | 39 | 1017.1 |
| 20260905092517 | 88 | 52 | 3.0 | 10.0 | 0.00 | 0.00 | 0.00 | 39 | 1017.1 |
| 20260905092017 | 88 | 119 | 3.0 | 7.0 | 0.00 | 0.00 | 0.00 | 38 | 1017.1 |
| 20260905091534 | 88 | 67 | 2.0 | 8.0 | 0.00 | 0.00 | 0.00 | 39 | 1017.1 |
| 20260905091018 | 87 | 65 | 3.0 | 8.0 | 0.00 | 0.00 | 0.00 | 41 | 1017.2 |
| 20260905090519 | 87 | 150 | 4.0 | 8.0 | 0.00 | 0.00 | 0.00 | 39 | 1017.1 |
| 20260905085518 | 87 | 52 | 4.0 | 7.0 | 0.00 | 0.00 | 0.00 | 41 | 1017.2 |
| 20260905085019 | 87 | 27 | 2.0 | 5.0 | 0.00 | 0.00 | 0.00 | 43 | 1017.2 |
| 20260905084535 | 86 | 70 | 0.0 | 5.0 | 0.00 | 0.00 | 0.00 | 48 | 1017.2 |
| 20260905084016 | 86 | 61 | 2.0 | 4.0 | 0.00 | 0.00 | 0.00 | 44 | 1017.3 |
| 20260905083520 | 85 | 88 | 1.0 | 4.0 | 0.00 | 0.00 | 0.00 | 50 | 1017.3 |
| 20260905083032 | 84 | 46 | 1.0 | 5.0 | 0.00 | 0.00 | 0.00 | 52 | 1017.4 |
| 20260905082519 | 84 | 44 | 2.0 | 5.0 | 0.00 | 0.00 | 0.00 | 54 | 1017.4 |
| 20260905082018 | 84 | 30 | 2.0 | 5.0 | 0.00 | 0.00 | 0.00 | 53 | 1017.4 |
| 20260905081019 | 83 | 20 | 3.0 | 5.0 | 0.00 | 0.00 | 0.00 | 54 | 1017.4 |
| 20260905080519 | 83 | 44 | 2.0 | 5.0 | 0.00 | 0.00 | 0.00 | 54 | 1017.4 |
| 20260905075515 | 83 | 335 | 4.0 | 8.0 | 0.00 | 0.00 | 0.00 | 53 | 1017.3 |
| 20260905075018 | 84 | 356 | 2.0 | 5.0 | 0.00 | 0.00 | 0.00 | 53 | 1017.2 |
| 20260905074536 | 84 | 30 | 1.0 | 5.0 | 0.00 | 0.00 | 0.00 | 51 | 1017.1 |
| 20260905074020 | 84 | 349 | 2.0 | 5.0 | 0.00 | 0.00 | 0.00 | 53 | 1017.2 |